Starlink 4310

operational
NORAD ID: 53074 Int'l Des: 2022-077 Owner: SPXS Country: US Constellation: starlink
LEOCIRCULARRETROGRADESSO

Starlink 4310について

説明を読み込み中...

リアルタイム位置

3D地球を読み込み中...

次回通過

高度履歴

Altitude vs Time

uPlot chart will show altitude changes over time

軌道要素

1 53074U 22077AH 25340.60145489 .00000732 00000-0 54930-4 0 9995
2 53074 97.6019 159.4292 0001347 84.8800 275.2580 15.05646501186971
Epoch: Dec 6, 2025 • Age: 14 hours

現在のステータス

高度 552.1 km
速度 7.59 km/s
衛星直下点 23.91°N, 6.99°E
打ち上げ日 Jul 11, 2022
運用期間 3.4 years
タイプ internet

技術仕様

分類 Payload
質量 297.00 kg
乾燥質量 275.00 kg
総質量 297.00 kg
長さ 0.20 m
直径 2.80 m
スパン 9.00 m
形状 Box + pan
製造者 SPXS
バスタイプ Starlink
フェーズステータス In Orbit
所有者/国 SPXS/US

大規模コンステレーション

Loading constellations...